Regional Weather Roundup
Issued by NWS Sterling, VA

Home | Current Version | Previous Version | Text Only | Print | Product List | Glossary Off
Versions: 1 2 3 4 5 6 7 8 9 10 11 12 13 14 15 16 17 18 19 20 21 22 23 24 25 26 27 28 29 30 31 32 33 34 35 36 37 38 39 40 41 42 43 44 45 46 47 48 49 50

000
ASUS41 KLWX 030210
RWRLWX

REGIONAL WEATHER ROUNDUP
NATIONAL WEATHER SERVICE BALTIMORE MD/WASHINGTON DC
1000 PM EDT WED SEP 02 2015

Note: "FAIR" indicates few or no clouds below 12,000 feet
with no significant weather and/or obstructions to visibility.
 TC=TEMPERATURE CELSIUS

 * =Non NWS site. Station does not report precipitation (e.g. rain,
    snow, etc.), thunder, or fog.

DCZ001-MDZ009-015-VAZ040>042-051-053>054-030300-
WASHINGTON METRO

CITY           SKY/WX    TMP DP  RH WIND       PRES   REMARKS
WASHINGTON NAT PTCLDY    79  70  74 S6        29.94S
DULLES         CLEAR     75  68  78 CALM      29.95S
ANDREWS AFB    CLEAR     76  69  78 SW3       29.93F
FT BELVOIR     CLEAR     74  70  88 S1        29.94F
QUANTICO       PTCLDY    76  67  73 W6        29.94F
COLLEGE PARK*  CLEAR     75  70  83 CALM      29.93F
LEESBURG*      CLEAR     75  70  83 CALM      29.97R
MANASSAS*      CLEAR     73  70  88 CALM      29.95F
GAITHERSBURG*  CLEAR     73  66  78 W3        29.99S

$$

MDZ006>007-011-014-030300-
BALTIMORE METRO

CITY           SKY/WX    TMP DP  RH WIND       PRES   REMARKS
BWI AIRPORT    PTCLDY    75  66  73 CALM      29.93R
MD SCIENCE CTR   N/A     81  65  58 MISG      29.93S
MARTIN STATE   MOCLDY    79  72  78 W5        29.93S
ANNAPOLIS      CLEAR     78  73  84 CALM      29.92S HAZE
FORT MEADE*    CLEAR     70  68  94 CALM      29.95F

$$

MDZ012-015-019>023-030300-
MARYLAND EASTERN SHORE

CITY           SKY/WX    TMP DP  RH WIND       PRES   REMARKS
OCEAN CITY     PTCLDY    74  68  81 CALM      29.92F
SALISBURY      PTCLDY    76  74  93 CALM      29.92F
BAY BRIDGE AP*   N/A     77  70  78 CALM      29.92F
CAMBRIDGE*     PTCLDY    77  70  78 CALM      29.92S

$$

MDZ017>025-030300-
SOUTHERN MARYLAND

CITY           SKY/WX    TMP DP  RH WIND       PRES   REMARKS
PATUXENT RIVER MOCLDY    75  70  84 W5        29.93S
ST INIGOES     PTCLDY    77  72  84 SW9       29.93F
LEONARDTOWN*   NOT AVBL

$$

MDZ003>005-030300-
NORTH CENTRAL MARYLAND

CITY           SKY/WX    TMP DP  RH WIND       PRES   REMARKS
FREDERICK*     CLEAR     70  70 100 CALM      29.97S FOG
HAGERSTOWN APT PTCLDY    74  68  81 CALM      29.98R
WESTMINSTER*   CLEAR     73  66  78 CALM      29.97S

$$

MDZ501>502-030300-
WESTERN MARYLAND

CITY           SKY/WX    TMP DP  RH WIND       PRES   REMARKS
OAKLAND*       CLEAR     63  61  94 SW6       30.12S
CUMBERLAND*    CLEAR     70  70 100 CALM      30.04S

$$

VAZ025>031-030300-
SHENANDOAH VALLEY

CITY           SKY/WX    TMP DP  RH WIND       PRES   REMARKS
WINCHESTER*    CLEAR     72  66  83 SW5       29.99R
FRONT ROYAL*   FAIR      68  64  88 S6        29.99S
LURAY*         FOG       64  64 100 CALM      30.02S VSB<1/4
NEW MARKET*    FAIR      66  66 100 CALM      30.01R
STAUNTON*      CLEAR     70  66  87 CALM      30.05S
WAYNESBORO*    FAIR      67  66  94 CALM      30.05S

$$

WVZ021-048>050-054>055-030300-
EASTERN WEST VIRGINIA PANHANDLE

CITY           SKY/WX    TMP DP  RH WIND       PRES   REMARKS
MARTINSBURG    CLEAR     71  68  90 S3        29.98R
PETERSBURG*    CLEAR     66  65  97 CALM      30.03R FOG

$$

VAZ036>039-050-030300-
CENTRAL FOOTHILLS

CITY           SKY/WX    TMP DP  RH WIND       PRES   REMARKS
CHARLOTTESVILL CLEAR     71  65  81 W5        29.99S
CULPEPER*      PTCLDY    72  65  79 SW5       29.97S
ORANGE*        CLEAR     70  64  83 S5        29.99S
GORDONSVILLE*  FAIR      69  65  88 W7        29.97S
WARRENTON*     FAIR      72  68  87 CALM      29.95F

$$

VAZ055>057-030300-
NORTH AND CENTRAL PIEDMONT

CITY           SKY/WX    TMP DP  RH WIND       PRES   REMARKS
FREDERICKSBRG* PTCLDY    76  68  78 CALM      29.94F
STAFFORD*      PTCLDY    72  66  80 CALM      29.99F

$$

NCZ024-NYZ072-PAZ021-071-VAZ022-071-030300-
OTHER REGIONAL OBSERVATIONS

CITY           SKY/WX    TMP DP  RH WIND       PRES   REMARKS
NEW YORK CITY  CLEAR     79  68  69 CALM      29.93S
PHILADELPHIA   CLEAR     80  68  66 S8        29.91R
PITTSBURGH     MOCLDY    76  65  68 W6        30.01R
ROANOKE        CLEAR     74  64  71 E5        30.06R
RICHMOND       CLOUDY    73  70  90 VRB6      29.96R
RALEIGH        MOCLDY    79  68  69 NE17G24   29.99R

$$

ANZ530>537-030300-
MARINE OBSERVATIONS

STATION/POSITION TIME  TEMP    WIND        PRES
                       AIR SEA DIR/SP/G
                 (UTC) (F)     (DEG/KT/KT) (MB)
THOMAS PT LIGHT  NOT AVBL
BALT KEY BRIDGE  0100          240/  5/  6 1013.1R
COVE POINT       0100          280/ 10/ 12 1014.2R
LEWISETTA        0100      82  260/  7/  9 1013.4S
SOLOMONS ISLAND  0100      81                N/A
PINEY POINT      0105          270/  9/ 10   N/A

$$




USA.gov is the U.S. government's official web portal to all federal, state and local government web resources and services.